SCP
0 0 0 0 0 0 0 0 0 0 0 0 0 0 0 0 0 0 0 0 0 0 0 0 0 0 0 0 0 0 0 0 0 0 0 0 0 0 0 0 0 0 0 0
0 0 0 0 0 0 0 0 0 0 0 0 0 0 0 0 0 0 0 0 0 0 0 0 0 0 0 0 0 0 0 0 0 0 0 0 0 0 0 0 0 0 0 0
0 0 0 0 0 0 0 0 0 0 0 0 0 0 0 0 0 0 0 0 0 0 0 0 0 0 0 0 0 0 0 0 0 0 0 0 0 0 0 0 0 0 0 0
0 0 0 0 0 0 0 0 0 0 0 0 0 0 0 0 0 0 0 0 0 0 0 0 0 0 0 0 0 0 0 0 0 0 0 0 0 0 0 0 0 0 0 0
0 0 0 0 0 0 0 0 0 0 0 0 0 0 0 0 0 0 0 0 0 0 0 0 0 0 0 0 0 0 0 0 0 0 0 0 0 0 0 0 0 0 0 0
0 0 0 0 0 0 0 0 0 0 0 0 0 0 0 0 0 0 0 0 0 0 0 0 0 0 0 0 0 0 0 0 0 0 0 0 0 0 0 0 0 0 0 0
0 0 0 0 0 0 0 0 0 0 0 0 0 0 0 0 0 0 0 0 0 0 0 0 0 0 0 0 0 0 0 0 0 0 0 0 0 0 0 0 0 0 0 0
0 0 0 0 0 0 0 0 0 0 0 0 0 0 0 0 0 0 0 0 0 0 0 0 0 0 0 0 0 0 0 0 0 0 0 0 0 0 0 0 0 0 0 0
0 0 0 0 0 0 0 0 0 0 0 0 0 0 0 0 0 0 0 0 0 0 0 0 0 0 0 0 0 0 0 0 0 0 0 0 0 0 0 0 0 0 0 0
0 0 0 0 0 0 0 0 0 0 0 0 0 0 0 0 0 0 0 0 0 0 0 0 0 0 0 0 0 0 0 0 0 0 0 0 0 0 0 0 0 0 0 0
0 0 0 0 0 0 0 0 0 0 0 0 0 0 0 0 0 0 0 0 0 0 0 0 0 0 0 0 0 0 0 0 0 0 0 0 0 0 0 0 0 0 0 0
0 0 0 0 0 0 0 0 0 0 0 0 0 0 0 0 0 0 0 0 0 0 0 0 0 0 0 0 0 0 0 0 0 0 0 0 0 0 0 0 0 0 0 0
0 0 0 0 0 0 0 0 0 0 0 0 0 0 0 0 0 0 0 0 0 0 0 0 0 0 0 0 0 0 0 0 0 0 0 0 0 0 0 0 0 0 0 0
0 -0 -0 0 0 0 0 0 0 0 0 0 0 0 0 0 0 0 0 0 0 0 0 0 0 0 0 0 0 0 0 0 0 0 0 0 0 0 0 0 0 0 0 0
0 -0 0 0 0 0 0 0 0 0 0 0 0 0 0 0 0 0 0 0 0 0 0 0 0 0 0 0 0 0 0 0 0 0 0 0 0 0 0 0 0 0 0 0
-0 -0 -0 -0 0 0 0 0 0 0 0 0 0 0 0 0 0 0 0 0 0 0 0 0 0 0 0 0 0 0 0 0 0 0 0 0 0 0 0 0 0 0 0 0
0 -0 -0 -0 0 -0 -0 0 0 0 0 0 0 0 0 0 0 0 0 0 0 0 0 0 0 0 0 0 0 0 0 0 0 0 0 0 0 0 0 0 0 0 0 0
0 0 0 0 0 -0 0 0 0 0 0 0 0 0 0 0 0 0 0 0 0 0 0 0 0 0 0 0 0 0 0 0 0 0 0 0 0 0 0 0 0 0 0 0
0 0 0 0 0 0 0 0 0 0 0 0 0 0 0 0 0 0 0 0 0 0 0 0 0 0 0 0 0 0 0 0 0 0 0 0 0 0 0 0 0 0 0 0
0 0 0 0 0 0 0 0 0 0 0 0 0 0 0 0 0 0 0 0 0 0 0 0 0 0 0 0 0 0 0 0 0 0 0 0 0 0 0 0 0 0 0 0
0 0 0 0 0 0 0 0 0 0 0 0 0 0 0 0 0 0 0 0 0 0 0 0 0 0 0 0 0 0 0 0 0 0 0 0 0 0 0 0 0 0 0 0
0 0 0 0 0 0 0 0 0 0 0 0 0 0 0 0 0 0 0 0 0 0 0 0 0 0 0 0 0 0 0 0 0 0 0 0 0 0 0 0 0 0 0 0
0 0 0 0 0 0 0 0 0 0 0 0 0 0 0 0 0 0 0 0 0 0 0 0 0 0 0 0 0 0 0 0 0 0 0 0 -0 -0 -0 0 0 0 0 0
0 0 0 0 0 0 0 0 0 0 0 0 0 0 0 0 0 0 0 0 0 0 0 0 0 0 0 0 0 0 0 0 0 0 0 0 0 0 -0 -0 -0 -0 0 0
0 0 0 0 0 0 0 0 0 0 0 0 0 0 0 0 0 0 0 0 0 0 0 0 0 0 0 0 0 0 0 0 0 0 -0 -0 -0 -0 -0 -0 -0 -0 -0 -0
0 0 0 0 0 0 0 0 0 0 0 0 0 0 0 0 0 0 0 0 0 0 0 0 0 0 0 0 0 0 0 0 0 0 -0 -0 -0 -0 0 0 0 0 -0 -0
Wind_Speed_500mb
5 20 23 12 3 5 18 24 26 9 5 4 13 9 8 7 10 17 19 19 19 20 18 26 29 31 32 32 31 30 25 24 24 30 30 29 31 35 36 39 41 40 36 30
7 15 7 8 8 7 17 27 15 9 9 5 4 14 8 4 4 8 13 17 17 18 19 23 26 26 29 30 29 27 22 21 25 28 26 28 33 36 38 39 38 37 32 25
16 8 2 9 13 13 8 24 16 11 10 7 3 9 9 5 4 3 1 8 7 11 16 22 31 33 29 24 22 20 19 20 23 24 25 29 33 37 37 38 36 35 31 25
16 11 3 21 13 6 10 5 8 22 12 6 8 9 9 4 9 10 10 8 6 6 8 5 9 15 18 18 16 16 16 19 22 24 27 31 33 36 38 37 34 32 31 28
5 11 12 13 5 3 8 2 11 10 8 5 4 2 8 11 12 10 11 10 10 10 10 10 7 5 8 10 11 12 15 17 21 25 28 33 36 38 38 38 35 32 29 27
12 7 8 7 13 12 13 9 9 6 4 1 5 5 7 12 10 8 8 9 9 9 11 9 8 6 3 4 9 13 12 11 17 23 27 32 35 36 37 35 35 33 30 28
8 10 7 6 10 5 3 3 4 4 1 4 2 4 5 11 7 6 6 9 9 9 8 7 3 1 5 11 16 15 13 12 20 28 33 37 37 37 36 34 32 31 30 29
6 4 15 16 8 4 6 2 2 8 8 5 1 8 5 10 10 6 9 8 10 12 12 10 8 9 13 15 17 21 24 28 31 38 42 42 39 40 37 34 34 31 29 29
8 5 3 8 7 6 6 3 3 10 4 3 2 5 7 9 7 13 11 11 12 13 13 12 12 13 15 18 21 26 32 37 39 41 43 41 39 40 37 34 33 33 32 31
7 10 1 2 3 14 4 10 4 1 6 6 6 7 6 17 23 20 11 10 9 13 14 14 14 14 15 16 16 17 23 30 36 40 40 37 37 38 35 37 35 34 34 34
2 1 4 4 4 2 5 4 5 2 4 3 2 4 4 16 27 25 10 9 8 11 14 17 17 15 15 15 17 20 23 25 27 29 30 32 34 35 37 42 42 39 38 36
2 5 7 3 3 4 3 1 3 4 6 3 3 6 3 13 24 21 6 6 3 8 11 14 16 16 17 21 24 27 31 33 35 37 37 36 34 34 37 42 45 44 42 40
1 1 7 5 6 4 8 7 4 6 2 12 6 3 5 10 14 17 5 3 5 10 4 9 16 23 29 33 36 37 37 38 38 39 39 37 37 38 40 41 41 43 45 43
5 1 5 3 5 6 7 11 15 8 7 9 11 3 12 16 18 20 15 9 7 10 4 15 25 32 37 40 41 39 38 39 40 41 41 43 43 43 42 41 40 38 41 45
1 1 3 5 4 5 9 12 24 21 23 16 4 17 13 20 25 6 9 7 7 7 9 21 31 37 38 38 37 38 37 37 37 37 39 41 42 42 43 41 39 36 38 42
5 3 5 7 6 11 17 25 27 31 32 29 28 26 16 13 15 16 9 5 8 5 12 23 30 33 35 37 37 39 41 41 40 39 38 37 38 39 39 39 40 40 38 40
4 5 2 4 2 10 18 40 36 20 18 27 26 15 19 14 24 14 14 13 4 10 18 23 26 29 31 34 37 40 43 43 42 41 39 38 38 37 36 35 35 38 40 41
13 12 3 5 5 10 6 6 2 24 16 32 22 13 14 14 10 11 16 9 5 14 17 20 22 25 27 30 33 36 40 42 42 42 41 39 38 36 35 35 36 36 37 38
8 5 7 6 7 16 3 5 9 12 9 21 26 22 23 15 15 11 19 3 12 15 15 16 17 19 23 27 31 35 39 42 44 45 44 43 41 37 35 35 34 35 37 38
2 5 8 6 7 10 4 7 7 3 12 12 18 27 23 18 13 8 23 12 12 10 9 8 10 15 20 25 30 34 39 42 45 47 47 46 45 43 40 40 40 41 43 44
8 8 19 14 9 14 4 14 9 5 2 16 17 21 23 8 3 8 10 10 7 7 9 10 11 15 20 25 28 32 36 40 43 45 46 46 46 45 43 42 40 43 43 47
14 15 10 10 11 14 17 10 10 4 12 18 16 15 12 7 7 8 9 8 7 6 8 11 13 15 19 23 29 34 38 42 44 44 45 45 45 46 47 46 43 41 41 43
9 9 6 15 7 3 15 6 9 9 12 15 16 16 12 10 10 9 7 6 8 10 11 14 17 19 23 27 33 39 41 44 47 48 48 49 48 45 44 46 46 46 43 42
11 13 7 4 5 22 17 16 14 13 13 15 12 11 10 8 7 6 5 6 8 11 16 21 26 30 32 34 36 39 46 49 51 53 53 51 50 50 46 43 43 43 41 39
1 20 12 10 18 13 19 34 28 25 17 16 14 12 10 6 6 6 5 6 11 17 22 26 29 32 34 37 39 42 45 49 52 55 57 58 59 55 50 46 42 36 35 33
20 14 12 12 7 6 4 22 25 26 20 14 11 10 9 8 7 6 7 12 17 21 25 27 30 34 38 41 44 46 49 50 52 55 57 56 58 58 56 54 50 42 34 31
Wind_Direction_500mb
27 152 154 122 31 22 159 159 157 125 47 199 191 186 148 152 196 215 219 220 229 240 243 240 244 250 251 254 256 256 262 276 298 312 317 318 322 324 325 327 327 327 327 326
101 93 68 103 107 122 164 157 136 101 34 242 175 214 161 163 201 233 239 240 247 259 264 253 244 244 250 250 250 251 256 276 296 307 310 316 320 324 327 329 329 328 326 323
110 68 278 143 104 140 93 188 166 140 129 76 225 199 170 94 129 110 344 268 263 271 275 261 246 245 245 247 244 241 252 277 297 304 309 313 318 324 329 331 331 329 326 317
64 15 145 111 83 347 154 27 117 134 160 169 338 194 161 132 123 96 77 77 65 41 25 358 230 225 227 229 224 233 259 286 301 304 306 312 315 320 325 326 326 327 325 313
39 29 28 74 29 351 96 90 107 99 91 161 52 251 121 157 162 121 70 58 52 45 53 55 77 158 188 199 216 246 274 295 298 306 311 312 313 316 320 322 322 320 321 320
87 58 26 61 76 94 132 125 92 100 124 205 21 317 184 174 162 132 89 54 43 47 54 66 82 99 136 215 250 267 275 298 308 315 319 319 314 308 313 316 316 313 314 314
72 34 359 4 108 98 59 169 76 64 168 244 2 245 46 134 107 89 58 43 41 49 48 59 77 200 269 273 270 250 259 293 306 311 313 311 312 308 303 306 306 307 308 307
97 158 1 348 25 123 89 36 222 168 189 155 14 225 131 136 99 98 89 68 66 59 49 35 360 314 298 283 265 252 265 285 299 305 307 304 301 302 296 300 301 302 300 301
136 84 312 35 23 329 159 208 55 104 56 211 167 233 207 197 181 146 79 75 50 26 8 351 338 324 321 312 287 273 275 285 296 301 304 302 297 297 290 291 296 300 296 294
160 114 356 2 232 56 29 122 147 198 150 221 186 257 213 189 174 164 98 45 18 1 354 344 330 321 322 328 329 309 300 301 301 300 301 303 302 296 285 284 290 293 296 293
169 168 138 249 24 112 143 165 74 56 338 257 213 227 216 184 174 163 112 23 4 14 43 48 44 31 17 2 345 333 321 314 313 316 317 312 306 299 288 283 285 290 288 288
38 90 112 73 53 327 325 308 260 240 179 58 331 267 126 163 166 175 187 346 31 105 84 59 40 24 4 346 332 323 315 311 306 305 306 305 306 303 299 294 287 281 281 281
58 91 121 143 178 183 233 190 157 101 39 204 196 211 150 177 194 207 266 229 196 169 125 18 359 351 344 338 331 323 316 312 309 302 301 303 303 304 303 301 298 284 276 275
329 40 289 236 82 108 193 195 202 209 199 192 228 179 200 195 199 204 250 249 225 204 251 333 338 338 334 331 329 325 321 315 308 302 300 298 296 299 301 301 298 293 280 274
170 176 319 308 292 247 259 216 195 202 218 225 255 215 202 190 182 232 221 223 202 220 268 327 333 333 332 333 335 332 331 327 322 313 305 300 298 300 301 295 293 291 285 277
348 235 186 228 188 223 256 247 238 233 241 252 257 257 246 206 233 240 199 162 111 71 327 326 330 334 338 340 341 338 336 334 332 327 322 313 307 304 302 297 292 294 290 286
158 154 272 287 345 288 263 233 215 208 214 231 235 245 167 178 192 193 161 148 120 332 328 332 335 338 340 343 345 345 344 344 342 337 332 325 319 315 309 303 296 294 293 289
157 154 183 292 290 243 48 84 347 216 228 217 238 215 225 208 174 170 160 158 315 321 325 329 332 334 338 345 349 350 352 354 353 350 345 335 326 321 316 309 304 299 296 293
312 176 156 212 235 307 179 197 189 200 240 213 229 204 179 164 153 162 174 250 316 317 323 328 333 344 353 359 1 1 1 358 356 356 352 346 338 332 324 319 313 309 304 301
145 319 248 172 212 234 145 159 161 177 267 188 203 193 202 170 205 170 201 283 294 295 303 324 339 347 349 353 357 360 2 3 2 356 352 350 344 338 328 320 315 310 306 301
172 199 218 216 253 281 191 146 131 223 83 151 153 155 166 199 15 144 252 282 284 289 307 326 337 342 347 349 352 355 357 357 358 358 354 347 344 340 335 330 324 316 311 305
184 168 187 192 217 266 155 135 218 54 135 161 165 171 186 217 265 279 274 254 257 278 308 329 346 352 351 348 345 347 347 347 347 349 351 351 346 339 334 331 330 326 323 318
226 221 189 217 227 69 187 239 231 183 176 175 178 190 204 243 254 246 232 266 309 327 338 342 345 350 351 352 347 342 342 341 340 341 342 344 345 344 339 332 328 326 325 321
221 190 240 251 195 235 241 223 214 203 199 200 209 224 241 241 237 217 246 293 321 329 337 337 337 338 340 340 343 339 336 335 336 336 337 337 337 339 340 339 336 332 332 327
163 160 204 243 265 259 250 228 225 216 213 214 230 245 245 236 236 241 262 305 325 328 328 330 331 331 332 334 336 335 332 331 330 331 332 332 331 330 331 332 334 332 328 326
190 196 202 252 221 235 244 214 203 199 204 219 230 221 225 222 228 249 285 308 320 326 325 323 323 323 325 328 331 332 330 329 328 326 326 326 325 324 321 319 317 317 317 314
Wind_Speed_850mb
5 20 23 12 3 5 18 24 26 9 5 4 13 9 8 7 10 17 19 19 19 20 18 26 29 31 32 32 31 30 25 24 24 30 30 29 31 35 36 39 41 40 36 30
7 15 7 8 8 7 17 27 15 9 9 5 4 14 8 4 4 8 13 17 17 18 19 23 26 26 29 30 29 27 22 21 25 28 26 28 33 36 38 39 38 37 32 25
16 8 2 9 13 13 8 24 16 11 10 7 3 9 9 5 4 3 1 8 7 11 16 22 31 33 29 24 22 20 19 20 23 24 25 29 33 37 37 38 36 35 31 25
16 11 3 21 13 6 10 5 8 22 12 6 8 9 9 4 9 10 10 8 6 6 8 5 9 15 18 18 16 16 16 19 22 24 27 31 33 36 38 37 34 32 31 28
5 11 12 13 5 3 8 2 11 10 8 5 4 2 8 11 12 10 11 10 10 10 10 10 7 5 8 10 11 12 15 17 21 25 28 33 36 38 38 38 35 32 29 27
12 7 8 7 13 12 13 9 9 6 4 1 5 5 7 12 10 8 8 9 9 9 11 9 8 6 3 4 9 13 12 11 17 23 27 32 35 36 37 35 35 33 30 28
8 10 7 6 10 5 3 3 4 4 1 4 2 4 5 11 7 6 6 9 9 9 8 7 3 1 5 11 16 15 13 12 20 28 33 37 37 37 36 34 32 31 30 29
6 4 15 16 8 4 6 2 2 8 8 5 1 8 5 10 10 6 9 8 10 12 12 10 8 9 13 15 17 21 24 28 31 38 42 42 39 40 37 34 34 31 29 29
8 5 3 8 7 6 6 3 3 10 4 3 2 5 7 9 7 13 11 11 12 13 13 12 12 13 15 18 21 26 32 37 39 41 43 41 39 40 37 34 33 33 32 31
7 10 1 2 3 14 4 10 4 1 6 6 6 7 6 17 23 20 11 10 9 13 14 14 14 14 15 16 16 17 23 30 36 40 40 37 37 38 35 37 35 34 34 34
2 1 4 4 4 2 5 4 5 2 4 3 2 4 4 16 27 25 10 9 8 11 14 17 17 15 15 15 17 20 23 25 27 29 30 32 34 35 37 42 42 39 38 36
2 5 7 3 3 4 3 1 3 4 6 3 3 6 3 13 24 21 6 6 3 8 11 14 16 16 17 21 24 27 31 33 35 37 37 36 34 34 37 42 45 44 42 40
1 1 7 5 6 4 8 7 4 6 2 12 6 3 5 10 14 17 5 3 5 10 4 9 16 23 29 33 36 37 37 38 38 39 39 37 37 38 40 41 41 43 45 43
5 1 5 3 5 6 7 11 15 8 7 9 11 3 12 16 18 20 15 9 7 10 4 15 25 32 37 40 41 39 38 39 40 41 41 43 43 43 42 41 40 38 41 45
1 1 3 5 4 5 9 12 24 21 23 16 4 17 13 20 25 6 9 7 7 7 9 21 31 37 38 38 37 38 37 37 37 37 39 41 42 42 43 41 39 36 38 42
5 3 5 7 6 11 17 25 27 31 32 29 28 26 16 13 15 16 9 5 8 5 12 23 30 33 35 37 37 39 41 41 40 39 38 37 38 39 39 39 40 40 38 40
4 5 2 4 2 10 18 40 36 20 18 27 26 15 19 14 24 14 14 13 4 10 18 23 26 29 31 34 37 40 43 43 42 41 39 38 38 37 36 35 35 38 40 41
13 12 3 5 5 10 6 6 2 24 16 32 22 13 14 14 10 11 16 9 5 14 17 20 22 25 27 30 33 36 40 42 42 42 41 39 38 36 35 35 36 36 37 38
8 5 7 6 7 16 3 5 9 12 9 21 26 22 23 15 15 11 19 3 12 15 15 16 17 19 23 27 31 35 39 42 44 45 44 43 41 37 35 35 34 35 37 38
2 5 8 6 7 10 4 7 7 3 12 12 18 27 23 18 13 8 23 12 12 10 9 8 10 15 20 25 30 34 39 42 45 47 47 46 45 43 40 40 40 41 43 44
8 8 19 14 9 14 4 14 9 5 2 16 17 21 23 8 3 8 10 10 7 7 9 10 11 15 20 25 28 32 36 40 43 45 46 46 46 45 43 42 40 43 43 47
14 15 10 10 11 14 17 10 10 4 12 18 16 15 12 7 7 8 9 8 7 6 8 11 13 15 19 23 29 34 38 42 44 44 45 45 45 46 47 46 43 41 41 43
9 9 6 15 7 3 15 6 9 9 12 15 16 16 12 10 10 9 7 6 8 10 11 14 17 19 23 27 33 39 41 44 47 48 48 49 48 45 44 46 46 46 43 42
11 13 7 4 5 22 17 16 14 13 13 15 12 11 10 8 7 6 5 6 8 11 16 21 26 30 32 34 36 39 46 49 51 53 53 51 50 50 46 43 43 43 41 39
1 20 12 10 18 13 19 34 28 25 17 16 14 12 10 6 6 6 5 6 11 17 22 26 29 32 34 37 39 42 45 49 52 55 57 58 59 55 50 46 42 36 35 33
20 14 12 12 7 6 4 22 25 26 20 14 11 10 9 8 7 6 7 12 17 21 25 27 30 34 38 41 44 46 49 50 52 55 57 56 58 58 56 54 50 42 34 31
Wind_Direction_850mb
27 152 154 122 31 22 159 159 157 125 47 199 191 186 148 152 196 215 219 220 229 240 243 240 244 250 251 254 256 256 262 276 298 312 317 318 322 324 325 327 327 327 327 326
101 93 68 103 107 122 164 157 136 101 34 242 175 214 161 163 201 233 239 240 247 259 264 253 244 244 250 250 250 251 256 276 296 307 310 316 320 324 327 329 329 328 326 323
110 68 278 143 104 140 93 188 166 140 129 76 225 199 170 94 129 110 344 268 263 271 275 261 246 245 245 247 244 241 252 277 297 304 309 313 318 324 329 331 331 329 326 317
64 15 145 111 83 347 154 27 117 134 160 169 338 194 161 132 123 96 77 77 65 41 25 358 230 225 227 229 224 233 259 286 301 304 306 312 315 320 325 326 326 327 325 313
39 29 28 74 29 351 96 90 107 99 91 161 52 251 121 157 162 121 70 58 52 45 53 55 77 158 188 199 216 246 274 295 298 306 311 312 313 316 320 322 322 320 321 320
87 58 26 61 76 94 132 125 92 100 124 205 21 317 184 174 162 132 89 54 43 47 54 66 82 99 136 215 250 267 275 298 308 315 319 319 314 308 313 316 316 313 314 314
72 34 359 4 108 98 59 169 76 64 168 244 2 245 46 134 107 89 58 43 41 49 48 59 77 200 269 273 270 250 259 293 306 311 313 311 312 308 303 306 306 307 308 307
97 158 1 348 25 123 89 36 222 168 189 155 14 225 131 136 99 98 89 68 66 59 49 35 360 314 298 283 265 252 265 285 299 305 307 304 301 302 296 300 301 302 300 301
136 84 312 35 23 329 159 208 55 104 56 211 167 233 207 197 181 146 79 75 50 26 8 351 338 324 321 312 287 273 275 285 296 301 304 302 297 297 290 291 296 300 296 294
160 114 356 2 232 56 29 122 147 198 150 221 186 257 213 189 174 164 98 45 18 1 354 344 330 321 322 328 329 309 300 301 301 300 301 303 302 296 285 284 290 293 296 293
169 168 138 249 24 112 143 165 74 56 338 257 213 227 216 184 174 163 112 23 4 14 43 48 44 31 17 2 345 333 321 314 313 316 317 312 306 299 288 283 285 290 288 288
38 90 112 73 53 327 325 308 260 240 179 58 331 267 126 163 166 175 187 346 31 105 84 59 40 24 4 346 332 323 315 311 306 305 306 305 306 303 299 294 287 281 281 281
58 91 121 143 178 183 233 190 157 101 39 204 196 211 150 177 194 207 266 229 196 169 125 18 359 351 344 338 331 323 316 312 309 302 301 303 303 304 303 301 298 284 276 275
329 40 289 236 82 108 193 195 202 209 199 192 228 179 200 195 199 204 250 249 225 204 251 333 338 338 334 331 329 325 321 315 308 302 300 298 296 299 301 301 298 293 280 274
170 176 319 308 292 247 259 216 195 202 218 225 255 215 202 190 182 232 221 223 202 220 268 327 333 333 332 333 335 332 331 327 322 313 305 300 298 300 301 295 293 291 285 277
348 235 186 228 188 223 256 247 238 233 241 252 257 257 246 206 233 240 199 162 111 71 327 326 330 334 338 340 341 338 336 334 332 327 322 313 307 304 302 297 292 294 290 286
158 154 272 287 345 288 263 233 215 208 214 231 235 245 167 178 192 193 161 148 120 332 328 332 335 338 340 343 345 345 344 344 342 337 332 325 319 315 309 303 296 294 293 289
157 154 183 292 290 243 48 84 347 216 228 217 238 215 225 208 174 170 160 158 315 321 325 329 332 334 338 345 349 350 352 354 353 350 345 335 326 321 316 309 304 299 296 293
312 176 156 212 235 307 179 197 189 200 240 213 229 204 179 164 153 162 174 250 316 317 323 328 333 344 353 359 1 1 1 358 356 356 352 346 338 332 324 319 313 309 304 301
145 319 248 172 212 234 145 159 161 177 267 188 203 193 202 170 205 170 201 283 294 295 303 324 339 347 349 353 357 360 2 3 2 356 352 350 344 338 328 320 315 310 306 301
172 199 218 216 253 281 191 146 131 223 83 151 153 155 166 199 15 144 252 282 284 289 307 326 337 342 347 349 352 355 357 357 358 358 354 347 344 340 335 330 324 316 311 305
184 168 187 192 217 266 155 135 218 54 135 161 165 171 186 217 265 279 274 254 257 278 308 329 346 352 351 348 345 347 347 347 347 349 351 351 346 339 334 331 330 326 323 318
226 221 189 217 227 69 187 239 231 183 176 175 178 190 204 243 254 246 232 266 309 327 338 342 345 350 351 352 347 342 342 341 340 341 342 344 345 344 339 332 328 326 325 321
221 190 240 251 195 235 241 223 214 203 199 200 209 224 241 241 237 217 246 293 321 329 337 337 337 338 340 340 343 339 336 335 336 336 337 337 337 339 340 339 336 332 332 327
163 160 204 243 265 259 250 228 225 216 213 214 230 245 245 236 236 241 262 305 325 328 328 330 331 331 332 334 336 335 332 331 330 331 332 332 331 330 331 332 334 332 328 326
190 196 202 252 221 235 244 214 203 199 204 219 230 221 225 222 228 249 285 308 320 326 325 323 323 323 325 328 331 332 330 329 328 326 326 326 325 324 321 319 317 317 317 314